Hourly Weather Luhove

Today, 17 May, Monday

Time Temperature Precipitation Wind Pressure Humidity
00:00 +19°C° 0.4 mm 4 mps 744 mmHg 76%
01:00 +17°C° 0.4 mm 5 mps 744 mmHg 76%
02:00 +17°C° 0.4 mm 5 mps 744 mmHg 76%
03:00 +17°C° 0 mm 5 mps 744 mmHg 79%
04:00 +16°C° 0 mm 6 mps 744 mmHg 81%
05:00 +16°C° 0 mm 6 mps 744 mmHg 83%
06:00 +17°C° 0 mm 6 mps 744 mmHg 85%
07:00 +19°C° 0 mm 6 mps 745 mmHg 86%
08:00 +20°C° 0 mm 6 mps 745 mmHg 87%
09:00 +20°C° 0 mm 6 mps 745 mmHg 83%
10:00 +21°C° 0 mm 6 mps 746 mmHg 79%
11:00 +22°C° 0 mm 6 mps 746 mmHg 75%
12:00 +22°C° 0 mm 6 mps 746 mmHg 72%
13:00 +23°C° 0 mm 6 mps 747 mmHg 69%
14:00 +23°C° 0 mm 6 mps 747 mmHg 66%
15:00 +22°C° 0 mm 6 mps 747 mmHg 69%
16:00 +21°C° 0 mm 5 mps 747 mmHg 73%
17:00 +21°C° 0 mm 5 mps 747 mmHg 77%
18:00 +19°C° 0 mm 5 mps 748 mmHg 83%
19:00 +18°C° 0 mm 4 mps 748 mmHg 90%
20:00 +16°C° 0 mm 3 mps 748 mmHg 96%
21:00 +16°C° 0 mm 3 mps 748 mmHg 97%
22:00 +16°C° 0 mm 3 mps 748 mmHg 97%
23:00 +16°C° 0 mm 3 mps 748 mmHg 97%

Tomorrow, 18 May, Tuesday

Time Temperature Precipitation Wind Pressure Humidity
00:00 +15°C° 0 mm 2 mps 749 mmHg 96%
01:00 +15°C° 0 mm 2 mps 749 mmHg 95%
02:00 +15°C° 0 mm 2 mps 749 mmHg 94%
03:00 +15°C° 0 mm 1 mps 749 mmHg 93%
04:00 +16°C° 0 mm 1 mps 749 mmHg 92%
05:00 +16°C° 0 mm 1 mps 749 mmHg 90%
06:00 +17°C° 0 mm 2 mps 749 mmHg 85%
07:00 +18°C° 0 mm 3 mps 748 mmHg 79%
08:00 +19°C° 0 mm 3 mps 748 mmHg 73%
09:00 +20°C° 0.1 mm 5 mps 748 mmHg 68%
10:00 +21°C° 0.1 mm 6 mps 748 mmHg 64%
11:00 +22°C° 0.1 mm 7 mps 748 mmHg 59%
12:00 +22°C° 0 mm 8 mps 748 mmHg 59%
13:00 +21°C° 0 mm 8 mps 748 mmHg 59%
14:00 +21°C° 0 mm 9 mps 748 mmHg 60%
15:00 +20°C° 0 mm 8 mps 748 mmHg 63%
16:00 +20°C° 0 mm 7 mps 748 mmHg 67%
17:00 +19°C° 0 mm 6 mps 748 mmHg 71%
18:00 +16°C° 0 mm 5 mps 748 mmHg 78%
19:00 +15°C° 0 mm 4 mps 748 mmHg 85%
20:00 +14°C° 0 mm 4 mps 748 mmHg 92%
21:00 +14°C° 0.1 mm 4 mps 748 mmHg 93%
22:00 +14°C° 0.1 mm 4 mps 748 mmHg 94%
23:00 +14°C° 0.1 mm 4 mps 748 mmHg 95%

Day after tomorrow, 19 May, Wednesday

Time Temperature Precipitation Wind Pressure Humidity
00:00 +13°C° 0 mm 4 mps 748 mmHg 95%
01:00 +12°C° 0 mm 3 mps 748 mmHg 95%
02:00 +12°C° 0 mm 3 mps 748 mmHg 95%
03:00 +12°C° 0 mm 3 mps 748 mmHg 94%
04:00 +12°C° 0 mm 3 mps 748 mmHg 93%
05:00 +13°C° 0 mm 3 mps 748 mmHg 93%
06:00 +14°C° 0.1 mm 5 mps 748 mmHg 83%
07:00 +16°C° 0.1 mm 6 mps 748 mmHg 73%
08:00 +17°C° 0.1 mm 8 mps 748 mmHg 64%
09:00 +17°C° 0.2 mm 8 mps 748 mmHg 65%
10:00 +17°C° 0.2 mm 9 mps 748 mmHg 66%
11:00 +17°C° 0.2 mm 9 mps 749 mmHg 68%
12:00 +16°C° 0.3 mm 8 mps 749 mmHg 73%
13:00 +15°C° 0.3 mm 8 mps 749 mmHg 79%
14:00 +15°C° 0.3 mm 8 mps 749 mmHg 84%
15:00 +15°C° 0.2 mm 7 mps 749 mmHg 82%
16:00 +15°C° 0.2 mm 7 mps 749 mmHg 81%
17:00 +15°C° 0.2 mm 7 mps 749 mmHg 79%
18:00 +14°C° 0 mm 7 mps 750 mmHg 82%
19:00 +12°C° 0 mm 7 mps 750 mmHg 84%
20:00 +12°C° 0 mm 7 mps 750 mmHg 87%
21:00 +12°C° 0 mm 7 mps 751 mmHg 88%
22:00 +11°C° 0 mm 7 mps 751 mmHg 88%
23:00 +11°C° 0 mm 7 mps 751 mmHg 88%

20 May, Thursday

Time Temperature Precipitation Wind Pressure Humidity
00:00 +11°C° 0 mm 6 mps 752 mmHg 90%
01:00 +10°C° 0 mm 5 mps 752 mmHg 91%
02:00 +10°C° 0 mm 5 mps 752 mmHg 93%
03:00 +11°C° 0 mm 4 mps 753 mmHg 92%
04:00 +11°C° 0 mm 4 mps 753 mmHg 92%
05:00 +11°C° 0 mm 4 mps 753 mmHg 91%
06:00 +13°C° 0 mm 4 mps 753 mmHg 81%
07:00 +16°C° 0 mm 5 mps 754 mmHg 71%
08:00 +19°C° 0 mm 5 mps 754 mmHg 61%
09:00 +20°C° 0 mm 5 mps 754 mmHg 57%
10:00 +21°C° 0 mm 5 mps 754 mmHg 52%
11:00 +22°C° 0 mm 5 mps 754 mmHg 48%
12:00 +23°C° 0 mm 5 mps 754 mmHg 46%
13:00 +23°C° 0 mm 5 mps 754 mmHg 45%
14:00 +23°C° 0 mm 4 mps 754 mmHg 44%
15:00 +23°C° 0 mm 4 mps 754 mmHg 46%
16:00 +22°C° 0 mm 4 mps 754 mmHg 48%
17:00 +21°C° 0 mm 3 mps 754 mmHg 51%
18:00 +19°C° 0 mm 3 mps 754 mmHg 56%
19:00 +17°C° 0 mm 3 mps 754 mmHg 62%
20:00 +15°C° 0 mm 2 mps 754 mmHg 67%
21:00 +15°C° 0 mm 2 mps 754 mmHg 68%
22:00 +14°C° 0 mm 3 mps 754 mmHg 69%
23:00 +14°C° 0 mm 3 mps 754 mmHg 70%

21 May, Friday

Time Temperature Precipitation Wind Pressure Humidity
00:00 +14°C° 0 mm 3 mps 754 mmHg 75%
01:00 +13°C° 0 mm 3 mps 754 mmHg 81%
02:00 +13°C° 0 mm 3 mps 754 mmHg 87%
03:00 +13°C° 0 mm 4 mps 754 mmHg 86%
04:00 +14°C° 0 mm 5 mps 754 mmHg 85%
05:00 +14°C° 0 mm 5 mps 754 mmHg 84%
06:00 +16°C° 0 mm 6 mps 754 mmHg 76%
07:00 +18°C° 0 mm 7 mps 754 mmHg 67%
08:00 +21°C° 0 mm 8 mps 754 mmHg 59%
09:00 +22°C° 0 mm 8 mps 754 mmHg 57%
10:00 +23°C° 0 mm 8 mps 753 mmHg 54%
11:00 +24°C° 0 mm 8 mps 753 mmHg 51%
12:00 +26°C° 0 mm 8 mps 753 mmHg 51%
13:00 +27°C° 0 mm 8 mps 753 mmHg 50%
14:00 +27°C° 0 mm 8 mps 753 mmHg 50%
15:00 +27°C° 0 mm 8 mps 753 mmHg 54%
16:00 +26°C° 0 mm 7 mps 752 mmHg 59%
17:00 +26°C° 0 mm 7 mps 752 mmHg 63%
18:00 +23°C° 0 mm 6 mps 752 mmHg 67%
19:00 +22°C° 0 mm 6 mps 752 mmHg 71%
20:00 +21°C° 0 mm 5 mps 752 mmHg 76%
21:00 +20°C° 0 mm 5 mps 752 mmHg 78%
22:00 +19°C° 0 mm 4 mps 752 mmHg 81%
23:00 +19°C° 0 mm 4 mps 752 mmHg 84%

22 May, Saturday

Time Temperature Precipitation Wind Pressure Humidity
00:00 +18°C° 0 mm 4 mps 752 mmHg 82%
01:00 +18°C° 0 mm 4 mps 752 mmHg 80%
02:00 +17°C° 0 mm 5 mps 752 mmHg 79%
03:00 +17°C° 0 mm 5 mps 752 mmHg 76%
04:00 +17°C° 0 mm 6 mps 752 mmHg 73%
05:00 +17°C° 0 mm 6 mps 752 mmHg 70%
06:00 +20°C° 0 mm 7 mps 752 mmHg 64%
07:00 +21°C° 0 mm 8 mps 751 mmHg 58%
08:00 +23°C° 0 mm 9 mps 751 mmHg 51%
09:00 +24°C° 0 mm 9 mps 751 mmHg 49%
10:00 +26°C° 0 mm 9 mps 752 mmHg 47%
11:00 +27°C° 0 mm 9 mps 752 mmHg 45%
12:00 +27°C° 0 mm 9 mps 751 mmHg 45%
13:00 +28°C° 0 mm 9 mps 751 mmHg 44%
14:00 +28°C° 0 mm 10 mps 751 mmHg 44%
15:00 +27°C° 0 mm 9 mps 751 mmHg 47%
16:00 +27°C° 0 mm 9 mps 751 mmHg 50%
17:00 +26°C° 0 mm 8 mps 751 mmHg 53%
18:00 +26°C° 0 mm 8 mps 751 mmHg 53%
19:00 +24°C° 0 mm 8 mps 751 mmHg 54%
20:00 +23°C° 0 mm 8 mps 751 mmHg 54%
21:00 +23°C° 0 mm 8 mps 751 mmHg 53%
22:00 +23°C° 0 mm 8 mps 750 mmHg 53%
23:00 +23°C° 0 mm 9 mps 750 mmHg 52%
Show more

We Need Your Consent

Meteoprog and our Service Providers may store and access personal data such as cookies, device identifiers or other similar technologies on your device and process such data to personalise content and ads, as well as provide social media features and to analyse the traffic.

  • Store and/or access information on your device

    Cookies, device identifiers or other information can be stored or accessed on your device for the purposes indicated above.

  • Personalised ads and content, ad and content measurement, audience insights, and products development

    Ads and content can be personalised based on a profile. More data can be added to better personalise ads and content. Ad and content performance can be measured. Insights about the audience who saw the ads and content can be derived. Such data can be used to develop or improve user’s experience, systems and software.

By clicking ‘I Agree’ you will allow the use of indicated cookies, device identifiers, web beacons or other similar technologies. Your settings can be changed in the browser on your device.

For certain purposes, legitimate interests may be relied on, rather than consent. You can read more about this in our Privacy and Cookie Policy.